Granitogorsk

Kazakhstan     42˚44′33″N   73˚28′08″E
temp.,
°C
wind,
m/s
gust,
m/s
humid.,
%
clouds,
%
prec.,
mm/h
press.,
hPa
HPBL,
m
1 december, tue
tue100:00−8˚se124680 0.0 103521
03:00−8˚se1245100 0.0 103321
06:00−7˚ese1245100 0.0 103321
09:00−5˚se1244100 0.0 103321
12:00−2˚e1274100 0.0 103258
15:00−2˚e118238 0.0 103057
18:00−3˚s234924 0.0 103221
21:00−2˚sse333757 0.0 103322
2 december, wed
wed200:00−1˚s443946 0.0 103224
03:00s334285 0.0 103222
06:00s224292 0.0 103222
09:00s2242100 0.0 103122
12:00+2˚e1272100 0.0 102927
15:00+2˚ene1177100 0.0 102722
18:00−1˚sse1256100 0.0 102822
21:00sse2253100 0.0 102922
3 december, thu
thu300:00s235199 0.0 102822
03:00s334840 0.0 102822
06:00−1˚s225147 0.0 102822
09:00sse225650 0.0 102822
12:00+1˚ene128852 0.0 1027101
15:00+1˚e118856 0.0 102650
18:00−1˚sse226678 0.0 102621
21:00−2˚sse1163100 0.0 102621
4 december, fri
fri400:00−2˚n1173100 0.0 102521
03:00−2˚nw0183100 0.0 102421
06:00−3˚wsw1190100 0.1 102322
09:00−2˚n1199100 1.1 102445
12:00−2˚nnw22100100 2.7 1024103
15:00−3˚nnw23100100 1.4 1025169
18:00−4˚nnw1199100 3.1 102785
21:00−5˚ene1198100 1.6 102925
5 december, sat
sat500:00−6˚s019499 2.1 102925
03:00−6˚se0192100 0.5 102923
06:00−6˚se1191100 1.1 102924
09:00−6˚se128993 0.5 102961
12:00−5˚n239589 0.9 1027187
15:00−5˚n229491 0.2 1026144
18:00−8˚se018874 0.3 102821
21:00−9˚se117433 0.0 102821